Time,TemperatureF,DewpointF,PressureIn,WindDirection,WindDirectionDegrees,WindSpeedMPH,WindSpeedGustMPH,Humidity,HourlyPrecipIn,Conditions,Clouds,dailyrainin,SolarRadiationWatts/m^2,SoftwareType,DateUTC
2013-07-01 00:00:00,95.3,38.6,29.72,SW,225,8.0,15.0,14,0.00,,---,0.00,0.00,VWS V14.01,2013-07-01 07:00:00,
2013-07-01 00:08:00,94.9,37.0,29.72,WSW,239,6.0,13.0,13,0.00,,,0.00,0,weatherlink.com 1.10,2013-07-01 07:08:00,
2013-07-01 00:15:00,94.8,40.0,29.73,SW,225,7.0,13.0,15,0.00,,---,0.00,0.00,VWS V14.01,2013-07-01 07:15:00,
2013-07-01 00:23:00,93.4,39.0,29.73,SSW,207,7.0,13.0,15,0.00,,,0.00,0,weatherlink.com 1.10,2013-07-01 07:23:00,
2013-07-01 00:30:00,93.5,37.2,29.73,SW,225,8.0,15.0,14,0.00,,---,0.00,0.00,VWS V14.01,2013-07-01 07:30:00,
2013-07-01 00:38:00,93.6,39.0,29.73,SW,220,8.0,14.0,15,0.00,,,0.00,0,weatherlink.com 1.10,2013-07-01 07:38:00,
2013-07-01 00:45:00,93.4,38.9,29.73,SW,225,9.0,15.0,15,0.00,,---,0.00,0.00,VWS V14.01,2013-07-01 07:45:00,
2013-07-01 00:53:00,92.5,39.0,29.72,SW,218,9.0,14.0,15,0.00,,,0.00,0,weatherlink.com 1.10,2013-07-01 07:53:00,
2013-07-01 01:00:00,92.4,38.1,29.72,SW,225,9.0,14.0,15,0.00,,---,0.00,0.00,VWS V14.01,2013-07-01 08:00:00,
2013-07-01 01:08:00,92.1,38.0,29.72,WSW,241,8.0,15.0,15,0.00,,,0.00,0,weatherlink.com 1.10,2013-07-01 08:08:00,
2013-07-01 01:15:00,92.2,37.9,29.72,SW,225,9.0,15.0,15,0.00,,---,0.00,0.00,VWS V14.01,2013-07-01 08:15:00,
2013-07-01 01:23:00,92.5,39.0,29.72,SSW,213,7.0,15.0,15,0.00,,,0.00,0,weatherlink.com 1.10,2013-07-01 08:23:00,
2013-07-01 01:30:00,92.6,36.5,29.72,SW,225,10.0,16.0,14,0.00,,---,0.00,0.00,VWS V14.01,2013-07-01 08:30:00,
2013-07-01 01:38:00,93.6,38.0,29.72,WSW,245,10.0,17.0,14,0.00,,,0.00,0,weatherlink.com 1.10,2013-07-01 08:38:00,
2013-07-01 01:45:00,93.3,38.8,29.72,SW,225,9.0,17.0,15,0.00,,---,0.00,0.00,VWS V14.01,2013-07-01 08:45:00,
2013-07-01 01:53:00,91.8,38.0,29.72,WSW,243,10.0,15.0,15,0.00,,,0.00,0,weatherlink.com 1.10,2013-07-01 08:53:00,
2013-07-01 02:00:00,91.8,37.6,29.72,SW,225,9.0,17.0,15,0.00,,---,0.00,0.00,VWS V14.01,2013-07-01 09:00:00,
2013-07-01 02:08:00,91.4,38.0,29.71,WSW,238,8.0,14.0,15,0.00,,,0.00,0,weatherlink.com 1.10,2013-07-01 09:08:00,
2013-07-01 02:15:00,91.5,37.4,29.71,SW,225,8.0,13.0,15,0.00,,---,0.00,0.00,VWS V14.01,2013-07-01 09:15:00,
2013-07-01 02:23:00,92.1,38.0,29.71,SW,220,12.0,16.0,15,0.00,,,0.00,0,weatherlink.com 1.10,2013-07-01 09:23:00,
2013-07-01 02:30:00,91.8,39.3,29.71,SW,225,9.0,16.0,16,0.00,,---,0.00,0.00,VWS V14.01,2013-07-01 09:30:00,
2013-07-01 02:38:00,91.0,40.0,29.71,SW,228,7.0,16.0,17,0.00,,,0.00,0,weatherlink.com 1.10,2013-07-01 09:38:00,
2013-07-01 02:45:00,90.9,40.1,29.71,SW,225,9.0,16.0,17,0.00,,---,0.00,0.00,VWS V14.01,2013-07-01 09:45:00,
2013-07-01 02:53:00,90.3,40.0,29.71,SW,236,8.0,13.0,17,0.00,,,0.00,0,weatherlink.com 1.10,2013-07-01 09:53:00,
2013-07-01 03:00:00,90.2,41.0,29.71,SW,225,8.0,14.0,18,0.00,,---,0.00,0.00,VWS V14.01,2013-07-01 10:00:00,
2013-07-01 03:08:00,89.3,41.0,29.71,SW,217,6.0,15.0,18,0.00,,,0.00,0,weatherlink.com 1.10,2013-07-01 10:08:00,
2013-07-01 03:15:00,89.4,40.4,29.71,SW,225,9.0,15.0,18,0.00,,---,0.00,0.00,VWS V14.01,2013-07-01 10:15:00,
2013-07-01 03:23:00,89.7,39.0,29.71,WSW,254,7.0,12.0,17,0.00,,,0.00,0,weatherlink.com 1.10,2013-07-01 10:23:00,
2013-07-01 03:30:00,89.6,39.1,29.72,WSW,248,6.0,12.0,17,0.00,,---,0.00,0.00,VWS V14.01,2013-07-01 10:30:00,
2013-07-01 03:38:00,89.7,41.0,29.72,WSW,239,9.0,13.0,18,0.00,,,0.00,0,weatherlink.com 1.10,2013-07-01 10:38:00,
2013-07-01 03:45:00,89.8,40.7,29.71,SW,225,8.0,13.0,18,0.00,,---,0.00,0.00,VWS V14.01,2013-07-01 10:45:00,
2013-07-01 03:53:00,90.3,40.0,29.71,SW,234,7.0,14.0,17,0.00,,,0.00,0,weatherlink.com 1.10,2013-07-01 10:53:00,
2013-07-01 04:00:00,90.4,41.2,29.72,WSW,248,8.0,14.0,18,0.00,,---,0.00,0.00,VWS V14.01,2013-07-01 11:00:00,
2013-07-01 04:08:00,90.5,40.0,29.72,SW,234,9.0,12.0,17,0.00,,,0.00,0,weatherlink.com 1.10,2013-07-01 11:08:00,
2013-07-01 04:15:00,90.5,39.8,29.72,SW,225,8.0,12.0,17,0.00,,---,0.00,0.00,VWS V14.01,2013-07-01 11:15:00,
2013-07-01 04:23:00,90.3,41.0,29.72,WSW,245,6.0,14.0,18,0.00,,,0.00,0,weatherlink.com 1.10,2013-07-01 11:23:00,
2013-07-01 04:30:00,90.3,41.1,29.71,SW,225,8.0,14.0,18,0.00,,---,0.00,0.00,VWS V14.01,2013-07-01 11:30:00,
2013-07-01 04:38:00,89.9,41.0,29.72,SW,227,7.0,11.0,18,0.00,,,0.00,0,weatherlink.com 1.10,2013-07-01 11:38:00,
2013-07-01 04:45:00,89.8,42.1,29.73,SW,225,8.0,14.0,19,0.00,,---,0.00,0.00,VWS V14.01,2013-07-01 11:45:00,
2013-07-01 04:53:00,89.3,41.0,29.73,WSW,246,10.0,14.0,18,0.00,,,0.00,0,weatherlink.com 1.10,2013-07-01 11:53:00,
2013-07-01 05:00:00,89.4,40.4,29.73,WSW,248,8.0,14.0,18,0.00,,---,0.00,0.00,VWS V14.01,2013-07-01 12:00:00,
2013-07-01 05:08:00,89.5,41.0,29.73,WSW,255,7.0,11.0,18,0.00,,,0.00,0,weatherlink.com 1.10,2013-07-01 12:08:00,
2013-07-01 05:15:00,89.5,41.8,29.74,WSW,248,6.0,11.0,19,0.00,,---,0.00,0.00,VWS V14.01,2013-07-01 12:15:00,
2013-07-01 05:23:00,88.8,43.0,29.74,West,268,2.0,9.0,20,0.00,,,0.00,0,weatherlink.com 1.10,2013-07-01 12:23:00,
2013-07-01 05:30:00,88.8,42.6,29.75,WSW,248,4.0,9.0,20,0.00,,---,0.00,0.00,VWS V14.01,2013-07-01 12:30:00,
2013-07-01 05:38:00,88.0,43.0,29.75,WSW,257,3.0,7.0,21,0.00,,,0.00,0,weatherlink.com 1.10,2013-07-01 12:38:00,
2013-07-01 05:45:00,88.1,43.3,29.75,WSW,248,5.0,11.0,21,0.00,,---,0.00,1.00,VWS V14.01,2013-07-01 12:45:00,
2013-07-01 05:53:00,88.2,44.0,29.76,SSW,213,8.0,11.0,21,0.00,,,0.00,11,weatherlink.com 1.10,2013-07-01 12:53:00,
2013-07-01 06:00:00,88.1,43.3,29.76,SSW,202,6.0,11.0,21,0.00,,---,0.00,13.00,VWS V14.01,2013-07-01 13:00:00,
2013-07-01 06:08:00,88.4,44.0,29.77,SE,145,5.0,12.0,21,0.00,,,0.00,30,weatherlink.com 1.10,2013-07-01 13:08:00,
2013-07-01 06:15:00,88.3,43.5,29.76,SSE,158,7.0,16.0,21,0.00,,---,0.00,31.00,VWS V14.01,2013-07-01 13:15:00,
2013-07-01 06:23:00,88.0,43.0,29.77,SSW,193,1.0,12.0,21,0.00,,,0.00,40,weatherlink.com 1.10,2013-07-01 13:23:00,
2013-07-01 06:30:00,88.0,43.2,29.78,SSW,202,3.0,8.0,21,0.00,,---,0.00,41.00,VWS V14.01,2013-07-01 13:30:00,
2013-07-01 06:38:00,88.0,45.0,29.77,SSE,152,6.0,10.0,22,0.00,,,0.00,54,weatherlink.com 1.10,2013-07-01 13:38:00,
2013-07-01 06:45:00,88.0,44.4,29.77,SE,135,6.0,10.0,22,0.00,,---,0.00,56.00,VWS V14.01,2013-07-01 13:45:00,
2013-07-01 06:53:00,87.8,44.0,29.78,SE,140,6.0,8.0,22,0.00,,,0.00,76,weatherlink.com 1.10,2013-07-01 13:53:00,
2013-07-01 07:00:00,87.7,44.2,29.79,SE,135,5.0,8.0,22,0.00,,---,0.00,73.00,VWS V14.01,2013-07-01 14:00:00,
2013-07-01 07:08:00,87.8,46.0,29.79,SE,140,5.0,11.0,23,0.00,,,0.00,72,weatherlink.com 1.10,2013-07-01 14:08:00,
2013-07-01 07:15:00,87.9,45.5,29.80,ESE,112,6.0,11.0,23,0.00,,---,0.00,73.00,VWS V14.01,2013-07-01 14:15:00,
2013-07-01 07:24:00,88.0,46.0,29.80,SSW,204,5.0,7.0,23,0.00,,,0.00,90,weatherlink.com 1.10,2013-07-01 14:24:00,
2013-07-01 07:30:00,88.2,45.8,29.80,SSW,202,5.0,14.0,23,0.00,,---,0.00,91.00,VWS V14.01,2013-07-01 14:30:00,
2013-07-01 07:39:00,89.9,46.0,29.81,SSW,197,7.0,15.0,22,0.00,,,0.00,100,weatherlink.com 1.10,2013-07-01 14:39:00,
2013-07-01 07:45:00,89.8,44.7,29.80,SSW,202,7.0,15.0,21,0.00,,---,0.00,107.00,VWS V14.01,2013-07-01 14:45:00,
2013-07-01 07:54:00,91.0,46.0,29.80,SSW,193,18.0,18.0,21,0.00,,,0.00,172,weatherlink.com 1.10,2013-07-01 14:54:00,
2013-07-01 08:00:00,91.0,44.4,29.82,SSW,202,9.0,20.0,20,0.00,,---,0.00,179.00,VWS V14.01,2013-07-01 15:00:00,
2013-07-01 08:09:00,91.4,45.0,29.82,SSW,205,2.0,16.0,20,0.00,,,0.00,169,weatherlink.com 1.10,2013-07-01 15:09:00,
2013-07-01 08:15:00,91.5,44.8,29.83,SSW,202,7.0,16.0,20,0.00,,---,0.00,183.00,VWS V14.01,2013-07-01 15:15:00,
2013-07-01 08:24:00,91.2,46.0,29.83,SSW,208,7.0,14.0,21,0.00,,,0.00,162,weatherlink.com 1.10,2013-07-01 15:24:00,
2013-07-01 08:30:00,91.1,45.8,29.84,SW,225,8.0,19.0,21,0.00,,---,0.00,170.00,VWS V14.01,2013-07-01 15:30:00,
2013-07-01 08:39:00,90.1,45.0,29.84,WSW,240,10.0,14.0,21,0.00,,,0.00,267,weatherlink.com 1.10,2013-07-01 15:39:00,
2013-07-01 08:45:00,90.2,46.2,29.84,SW,225,9.0,16.0,22,0.00,,---,0.00,245.00,VWS V14.01,2013-07-01 15:45:00,
2013-07-01 08:54:00,90.3,47.0,29.84,SW,218,5.0,15.0,22,0.00,,,0.00,279,weatherlink.com 1.10,2013-07-01 15:54:00,
2013-07-01 09:00:00,90.4,45.2,29.84,SW,225,9.0,15.0,21,0.00,,---,0.00,280.00,VWS V14.01,2013-07-01 16:00:00,
2013-07-01 09:09:00,91.6,46.0,29.84,WNW,298,5.0,14.0,21,0.00,,,0.00,329,weatherlink.com 1.10,2013-07-01 16:09:00,
2013-07-01 09:15:00,91.7,45.0,29.85,WNW,292,4.0,14.0,20,0.00,,---,0.00,529.00,VWS V14.01,2013-07-01 16:15:00,
2013-07-01 09:24:00,93.4,47.0,29.84,West,273,11.0,11.0,20,0.00,,,0.00,722,weatherlink.com 1.10,2013-07-01 16:24:00,
2013-07-01 09:30:00,93.4,45.0,29.83,West,270,7.0,15.0,19,0.00,,---,0.00,687.00,VWS V14.01,2013-07-01 16:30:00,
2013-07-01 09:39:00,96.1,46.0,29.83,SW,236,7.0,12.0,18,0.00,,,0.00,708,weatherlink.com 1.10,2013-07-01 16:39:00,
2013-07-01 09:45:00,95.8,44.0,29.83,WSW,248,6.0,12.0,17,0.00,,---,0.00,715.00,VWS V14.01,2013-07-01 16:45:00,
2013-07-01 09:54:00,97.1,46.0,29.84,West,274,5.0,13.0,17,0.00,,,0.00,728,weatherlink.com 1.10,2013-07-01 16:54:00,
2013-07-01 10:00:00,97.0,45.0,29.83,WNW,292,5.0,13.0,17,0.00,,---,0.00,739.00,VWS V14.01,2013-07-01 17:00:00,
2013-07-01 10:09:00,98.0,45.0,29.83,West,280,3.0,10.0,16,0.00,,,0.00,777,weatherlink.com 1.10,2013-07-01 17:09:00,
2013-07-01 10:15:00,97.9,44.1,29.83,WNW,292,6.0,11.0,16,0.00,,---,0.00,758.00,VWS V14.01,2013-07-01 17:15:00,
2013-07-01 10:24:00,99.2,44.0,29.83,WNW,282,4.0,11.0,15,0.00,,,0.00,812,weatherlink.com 1.10,2013-07-01 17:24:00,
2013-07-01 10:30:00,99.1,41.6,29.82,WNW,292,6.0,12.0,14,0.00,,---,0.00,794.00,VWS V14.01,2013-07-01 17:30:00,
2013-07-01 10:39:00,100.7,42.0,29.82,West,270,2.0,10.0,13,0.00,,,0.00,879,weatherlink.com 1.10,2013-07-01 17:39:00,
2013-07-01 10:45:00,100.7,42.9,29.82,West,270,5.0,10.0,14,0.00,,---,0.00,852.00,VWS V14.01,2013-07-01 17:45:00,
2013-07-01 10:54:00,102.8,41.0,29.81,NW,325,7.0,11.0,12,0.00,,,0.00,828,weatherlink.com 1.10,2013-07-01 17:54:00,
2013-07-01 11:00:00,102.6,40.3,29.81,NNW,338,6.0,11.0,12,0.00,,---,0.00,838.00,VWS V14.01,2013-07-01 18:00:00,
2013-07-01 11:09:00,102.0,40.0,29.82,NNE,12,5.0,11.0,12,0.00,,,0.00,582,weatherlink.com 1.10,2013-07-01 18:09:00,
2013-07-01 11:15:00,102.0,39.9,29.81,North,0,6.0,11.0,12,0.00,,---,0.00,601.00,VWS V14.01,2013-07-01 18:15:00,
2013-07-01 11:24:00,101.5,40.0,29.81,NNW,335,1.0,8.0,12,0.00,,,0.00,737,weatherlink.com 1.10,2013-07-01 18:24:00,
2013-07-01 11:30:00,101.4,39.4,29.80,NNW,338,4.0,9.0,12,0.00,,---,0.00,663.00,VWS V14.01,2013-07-01 18:30:00,
2013-07-01 11:39:00,102.0,38.0,29.80,NNW,342,2.0,8.0,11,0.00,,,0.00,332,weatherlink.com 1.10,2013-07-01 18:39:00,
2013-07-01 11:45:00,102.0,37.7,29.80,NNW,338,3.0,8.0,11,0.00,,---,0.00,355.00,VWS V14.01,2013-07-01 18:45:00,
2013-07-01 11:54:00,102.3,38.0,29.80,North,353,4.0,9.0,11,0.00,,,0.00,499,weatherlink.com 1.10,2013-07-01 18:54:00,
2013-07-01 12:00:00,102.3,37.9,29.80,North,0,4.0,9.0,11,0.00,,---,0.00,502.00,VWS V14.01,2013-07-01 19:00:00,
2013-07-01 12:09:00,103.6,39.0,29.79,NNE,16,3.0,9.0,11,0.00,,,0.00,1125,weatherlink.com 1.10,2013-07-01 19:09:00,
2013-07-01 12:15:00,103.4,36.3,29.79,NNE,22,4.0,9.0,10,0.00,,---,0.00,1060.00,VWS V14.01,2013-07-01 19:15:00,
2013-07-01 12:24:00,106.2,39.0,29.78,NW,324,7.0,9.0,10,0.00,,,0.00,993,weatherlink.com 1.10,2013-07-01 19:24:00,
2013-07-01 12:30:00,106.0,35.6,29.78,NW,315,3.0,9.0,9,0.00,,---,0.00,1057.00,VWS V14.01,2013-07-01 19:30:00,
2013-07-01 12:39:00,108.5,38.0,29.78,West,260,2.0,5.0,9,0.00,,,0.00,635,weatherlink.com 1.10,2013-07-01 19:39:00,
2013-07-01 12:45:00,108.2,37.2,29.78,NNE,22,2.0,8.0,9,0.00,,---,0.00,1062.00,VWS V14.01,2013-07-01 19:45:00,
2013-07-01 12:54:00,108.8,38.0,29.77,North,357,1.0,9.0,9,0.00,,,0.00,476,weatherlink.com 1.10,2013-07-01 19:54:00,
2013-07-01 13:00:00,108.9,37.7,29.77,NNE,22,3.0,9.0,9,0.00,,---,0.00,587.00,VWS V14.01,2013-07-01 20:00:00,
2013-07-01 13:09:00,108.2,38.0,29.77,East,80,2.0,7.0,9,0.00,,,0.00,631,weatherlink.com 1.10,2013-07-01 20:09:00,
2013-07-01 13:15:00,108.0,37.1,29.77,ENE,68,3.0,10.0,9,0.00,,---,0.00,502.00,VWS V14.01,2013-07-01 20:15:00,
2013-07-01 13:24:00,106.5,39.0,29.77,NE,53,4.0,10.0,10,0.00,,,0.00,874,weatherlink.com 1.10,2013-07-01 20:24:00,
2013-07-01 13:30:00,106.7,38.8,29.76,ENE,68,4.0,11.0,10,0.00,,---,0.00,651.00,VWS V14.01,2013-07-01 20:30:00,
2013-07-01 13:39:00,107.4,37.0,29.76,North,2,0.0,9.0,9,0.00,,,0.00,947,weatherlink.com 1.10,2013-07-01 20:39:00,
2013-07-01 13:45:00,107.4,36.6,29.76,NNE,22,4.0,9.0,9,0.00,,---,0.00,950.00,VWS V14.01,2013-07-01 20:45:00,
2013-07-01 13:54:00,108.8,38.0,29.75,NE,40,5.0,6.0,9,0.00,,,0.00,926,weatherlink.com 1.10,2013-07-01 20:54:00,
2013-07-01 14:00:00,108.7,37.6,29.75,NE,45,2.0,8.0,9,0.00,,---,0.00,936.00,VWS V14.01,2013-07-01 21:00:00,
2013-07-01 14:09:00,110.2,39.0,29.75,NNE,29,0.0,6.0,9,0.00,,,0.00,923,weatherlink.com 1.10,2013-07-01 21:09:00,
2013-07-01 14:15:00,110.2,38.7,29.74,NNE,22,1.0,6.0,9,0.00,,---,0.00,923.00,VWS V14.01,2013-07-01 21:15:00,
2013-07-01 14:24:00,111.3,37.0,29.74,NNE,29,0.0,8.0,8,0.00,,,0.00,921,weatherlink.com 1.10,2013-07-01 21:24:00,
2013-07-01 14:30:00,111.0,36.3,29.74,ENE,68,3.0,8.0,8,0.00,,---,0.00,864.00,VWS V14.01,2013-07-01 21:30:00,
2013-07-01 14:39:00,109.6,39.0,29.74,ENE,78,1.0,7.0,9,0.00,,,0.00,865,weatherlink.com 1.10,2013-07-01 21:39:00,
2013-07-01 14:45:00,109.7,35.3,29.73,East,90,4.0,9.0,8,0.00,,---,0.00,759.00,VWS V14.01,2013-07-01 21:45:00,
2013-07-01 14:54:00,110.2,37.0,29.73,NE,43,9.0,9.0,8,0.00,,,0.00,946,weatherlink.com 1.10,2013-07-01 21:54:00,
2013-07-01 15:00:00,110.0,35.6,29.73,ENE,68,4.0,11.0,8,0.00,,---,0.00,879.00,VWS V14.01,2013-07-01 22:00:00,
2013-07-01 15:10:00,109.9,39.0,29.73,ENE,64,8.0,10.0,9,0.00,,,0.00,872,weatherlink.com 1.10,2013-07-01 22:10:00,
2013-07-01 15:15:00,109.7,35.3,29.73,East,90,4.0,11.0,8,0.00,,---,0.00,786.00,VWS V14.01,2013-07-01 22:15:00,
2013-07-01 15:25:00,109.3,36.0,29.73,East,101,0.0,6.0,8,0.00,,,0.00,239,weatherlink.com 1.10,2013-07-01 22:25:00,
2013-07-01 15:30:00,109.5,35.2,29.73,East,90,1.0,6.0,8,0.00,,---,0.00,551.00,VWS V14.01,2013-07-01 22:30:00,
2013-07-01 15:40:00,111.0,37.0,29.72,NW,322,2.0,6.0,8,0.00,,,0.00,780,weatherlink.com 1.10,2013-07-01 22:40:00,
2013-07-01 15:45:00,110.9,36.2,29.72,NW,315,2.0,6.0,8,0.00,,---,0.00,576.00,VWS V14.01,2013-07-01 22:45:00,
2013-07-01 15:55:00,111.0,37.0,29.72,WNW,283,4.0,6.0,8,0.00,,,0.00,193,weatherlink.com 1.10,2013-07-01 22:55:00,
2013-07-01 16:00:00,111.0,36.3,29.72,NNW,338,3.0,7.0,8,0.00,,---,0.00,274.00,VWS V14.01,2013-07-01 23:00:00,
2013-07-01 16:10:00,110.5,40.0,29.71,NNW,342,0.0,5.0,9,0.00,,,0.00,729,weatherlink.com 1.10,2013-07-01 23:10:00,
2013-07-01 16:15:00,110.7,36.1,29.71,NNW,338,1.0,5.0,8,0.00,,---,0.00,688.00,VWS V14.01,2013-07-01 23:15:00,
2013-07-01 16:30:00,111.0,36.3,29.71,East,90,2.0,8.0,8,0.00,,---,0.00,182.00,VWS V14.01,2013-07-01 23:30:00,
2013-07-01 16:40:00,109.6,36.0,29.71,East,89,0.0,5.0,8,0.00,,,0.00,155,weatherlink.com 1.10,2013-07-01 23:40:00,
2013-07-01 16:45:00,109.7,38.3,29.70,East,90,2.0,7.0,9,0.00,,---,0.00,155.00,VWS V14.01,2013-07-01 23:45:00,
2013-07-01 16:55:00,108.8,38.0,29.70,NW,320,0.0,12.0,9,0.00,,,0.00,139,weatherlink.com 1.10,2013-07-01 23:55:00,
2013-07-01 17:00:00,109.0,37.8,29.70,WNW,292,5.0,12.0,9,0.00,,---,0.00,160.00,VWS V14.01,2013-07-02 00:00:00,
2013-07-01 17:10:00,109.3,39.0,29.70,SSW,193,2.0,14.0,9,0.00,,,0.00,522,weatherlink.com 1.10,2013-07-02 00:10:00,
2013-07-01 17:15:00,109.3,35.0,29.70,SSW,202,6.0,15.0,8,0.00,,---,0.00,487.00,VWS V14.01,2013-07-02 00:15:00,
2013-07-01 17:25:00,110.2,39.0,29.70,South,190,12.0,20.0,9,0.00,,,0.00,487,weatherlink.com 1.10,2013-07-02 00:25:00,
2013-07-01 17:30:00,110.3,38.8,29.70,SSW,202,9.0,20.0,9,0.00,,---,0.00,479.00,VWS V14.01,2013-07-02 00:30:00,
2013-07-01 17:40:00,109.6,42.0,29.70,SSW,213,14.0,22.0,10,0.00,,,0.00,404,weatherlink.com 1.10,2013-07-02 00:40:00,
2013-07-01 17:45:00,109.6,41.0,29.70,SSW,202,13.0,22.0,10,0.00,,---,0.00,411.00,VWS V14.01,2013-07-02 00:45:00,
2013-07-01 17:55:00,108.2,41.0,29.70,WSW,245,9.0,23.0,10,0.00,,,0.00,352,weatherlink.com 1.10,2013-07-02 00:55:00,
2013-07-01 18:00:00,108.3,40.0,29.71,SSW,202,13.0,23.0,10,0.00,,---,0.00,353.00,VWS V14.01,2013-07-02 01:00:00,
2013-07-01 18:10:00,106.8,42.0,29.70,SW,228,9.0,25.0,11,0.00,,,0.00,272,weatherlink.com 1.10,2013-07-02 01:10:00,
2013-07-01 18:15:00,107.0,41.5,29.71,SSW,202,15.0,27.0,11,0.00,,---,0.00,283.00,VWS V14.01,2013-07-02 01:15:00,
2013-07-01 18:25:00,105.4,43.0,29.71,SSW,213,17.0,27.0,12,0.00,,,0.00,272,weatherlink.com 1.10,2013-07-02 01:25:00,
2013-07-01 18:30:00,105.5,42.6,29.71,SSW,202,15.0,27.0,12,0.00,,---,0.00,276.00,VWS V14.01,2013-07-02 01:30:00,
2013-07-01 18:40:00,104.4,42.0,29.71,South,177,16.0,27.0,12,0.00,,,0.00,250,weatherlink.com 1.10,2013-07-02 01:40:00,
2013-07-01 18:45:00,104.5,41.8,29.71,SSW,202,15.0,27.0,12,0.00,,---,0.00,252.00,VWS V14.01,2013-07-02 01:45:00,
2013-07-01 18:55:00,104.1,42.0,29.72,WSW,238,11.0,25.0,12,0.00,,,0.00,225,weatherlink.com 1.10,2013-07-02 01:55:00,
2013-07-01 19:00:00,104.1,43.6,29.72,SSW,202,14.0,25.0,13,0.00,,---,0.00,224.00,VWS V14.01,2013-07-02 02:00:00,
2013-07-01 19:10:00,103.6,44.0,29.72,South,186,8.0,21.0,13,0.00,,,0.00,186,weatherlink.com 1.10,2013-07-02 02:10:00,
2013-07-01 19:15:00,103.6,43.2,29.72,SSW,202,13.0,22.0,13,0.00,,---,0.00,161.00,VWS V14.01,2013-07-02 02:15:00,
2013-07-01 19:25:00,103.1,45.0,29.73,SW,218,14.0,21.0,14,0.00,,,0.00,139,weatherlink.com 1.10,2013-07-02 02:25:00,
2013-07-01 19:30:00,103.1,44.7,29.73,SSW,202,12.0,22.0,14,0.00,,---,0.00,141.00,VWS V14.01,2013-07-02 02:30:00,
2013-07-01 19:40:00,102.8,45.0,29.73,SSW,195,18.0,18.0,14,0.00,,,0.00,69,weatherlink.com 1.10,2013-07-02 02:40:00,
2013-07-01 19:45:00,104.5,41.8,29.71,SSW,202,15.0,27.0,12,0.00,,---,0.00,252.00,VWS V14.01,2013-07-02 02:45:00,
2013-07-01 19:48:00,102.5,44.3,29.74,SSW,208,7.0,12.0,14,0.00,,---,0.00,44.00,VWS V14.01,2013-07-02 02:48:00,
2013-07-01 19:53:00,102.3,44.1,29.74,South,185,16.0,17.0,14,0.00,,---,0.00,33.00,VWS V14.01,2013-07-02 02:53:00,
2013-07-01 19:58:00,102.3,44.1,29.74,SSW,194,9.0,18.0,14,0.00,,---,0.00,19.00,VWS V14.01,2013-07-02 02:58:00,
2013-07-01 20:00:00,104.1,43.6,29.72,SSW,202,14.0,25.0,13,0.00,,---,0.00,224.00,VWS V14.01,2013-07-02 03:00:00,
2013-07-01 20:03:00,102.3,44.1,29.75,SW,214,10.0,15.0,14,0.00,,---,0.00,11.00,VWS V14.01,2013-07-02 03:03:00,
2013-07-01 20:08:00,102.0,43.9,29.75,South,189,11.0,18.0,14,0.00,,---,0.00,0.00,VWS V14.01,2013-07-02 03:08:00,
2013-07-01 20:13:00,102.0,43.9,29.75,SSW,205,8.0,18.0,14,0.00,,---,0.00,0.00,VWS V14.01,2013-07-02 03:13:00,
2013-07-01 20:15:00,103.6,43.2,29.72,SSW,202,13.0,22.0,13,0.00,,---,0.00,161.00,VWS V14.01,2013-07-02 03:15:00,
2013-07-01 20:18:00,101.7,43.6,29.75,South,186,6.0,16.0,14,0.00,,---,0.00,0.00,VWS V14.01,2013-07-02 03:18:00,
2013-07-01 20:23:00,101.5,43.5,29.75,SSW,196,7.0,16.0,14,0.00,,---,0.00,0.00,VWS V14.01,2013-07-02 03:23:00,
2013-07-01 20:28:00,101.2,45.1,29.74,SW,230,18.0,22.0,15,0.00,,---,0.00,0.00,VWS V14.01,2013-07-02 03:28:00,
2013-07-01 20:30:00,103.1,44.7,29.73,SSW,202,12.0,22.0,14,0.00,,---,0.00,141.00,VWS V14.01,2013-07-02 03:30:00,
2013-07-01 20:33:00,101.0,44.9,29.74,SW,227,10.0,13.0,15,0.00,,---,0.00,0.00,VWS V14.01,2013-07-02 03:33:00,
2013-07-01 20:38:00,100.7,44.7,29.74,SSW,204,5.0,17.0,15,0.00,,---,0.00,0.00,VWS V14.01,2013-07-02 03:38:00,
2013-07-01 20:43:00,100.2,44.3,29.73,SSW,199,16.0,20.0,15,0.00,,---,0.00,0.00,VWS V14.01,2013-07-02 03:43:00,
2013-07-01 20:48:00,99.9,44.0,29.73,SW,228,14.0,14.0,15,0.00,,---,0.00,0.00,VWS V14.01,2013-07-02 03:48:00,
2013-07-01 20:53:00,99.9,44.0,29.74,SW,222,14.0,22.0,15,0.00,,---,0.00,0.00,VWS V14.01,2013-07-02 03:53:00,
2013-07-01 20:58:00,99.7,43.9,29.74,SW,223,12.0,22.0,15,0.00,,---,0.00,0.00,VWS V14.01,2013-07-02 03:58:00,
2013-07-01 21:00:00,102.3,44.1,29.74,SSW,211,5.0,18.0,14,0.00,,---,0.00,12.00,VWS V14.01,2013-07-02 04:00:00,
2013-07-01 21:01:00,99.7,43.9,29.74,SW,230,10.0,22.0,15,0.00,,---,0.00,0.00,VWS V14.01,2013-07-02 04:01:00,
2013-07-01 21:02:00,99.7,43.9,29.74,SW,220,11.0,11.0,15,0.00,,---,0.00,0.00,VWS V14.01,2013-07-02 04:02:00,
2013-07-01 21:06:00,99.4,43.6,29.75,SSW,201,7.0,12.0,15,0.00,,---,0.00,0.00,VWS V14.01,2013-07-02 04:06:00,
2013-07-01 21:12:00,99.0,45.0,29.75,South,179,2.0,16.0,16,0.00,,---,0.00,0.00,VWS V14.01,2013-07-02 04:12:00,
2013-07-01 21:15:00,102.0,43.9,29.75,SSW,202,4.0,18.0,14,0.00,,---,0.00,0.00,VWS V14.01,2013-07-02 04:15:00,
2013-07-01 21:17:00,98.5,46.2,29.76,SW,216,11.0,14.0,17,0.00,,---,0.00,0.00,VWS V14.01,2013-07-02 04:17:00,
2013-07-01 21:22:00,97.5,46.9,29.76,South,182,12.0,19.0,18,0.00,,---,0.00,0.00,VWS V14.01,2013-07-02 04:22:00,
2013-07-01 21:27:00,96.6,46.2,29.76,WSW,244,10.0,19.0,18,0.00,,---,0.00,0.00,VWS V14.01,2013-07-02 04:27:00,
2013-07-01 21:30:00,97.1,48.0,29.76,SW,225,12.0,20.0,19,0.00,,---,0.00,0.00,VWS V14.01,2013-07-02 04:30:00,
2013-07-01 21:33:00,95.6,47.0,29.76,SW,225,15.0,18.0,19,0.00,,,0.00,0,weatherlink.com 1.10,2013-07-02 04:33:00,
2013-07-01 21:45:00,95.2,46.5,29.77,SW,225,12.0,19.0,19,0.00,,---,0.00,0.00,VWS V14.01,2013-07-02 04:45:00,
2013-07-01 21:48:00,94.7,45.0,29.77,SSW,203,12.0,19.0,18,0.00,,,0.00,0,weatherlink.com 1.10,2013-07-02 04:48:00,
2013-07-01 22:00:00,94.5,47.3,29.77,SW,225,12.0,22.0,20,0.00,,---,0.00,0.00,VWS V14.01,2013-07-02 05:00:00,
2013-07-01 22:03:00,94.0,47.0,29.77,SW,221,18.0,22.0,20,0.00,,,0.00,0,weatherlink.com 1.10,2013-07-02 05:03:00,
2013-07-01 22:15:00,93.7,46.6,29.78,SW,225,13.0,21.0,20,0.00,,---,0.00,0.00,VWS V14.01,2013-07-02 05:15:00,
2013-07-01 22:18:00,93.2,47.0,29.77,SSW,199,15.0,22.0,20,0.00,,,0.00,0,weatherlink.com 1.10,2013-07-02 05:18:00,
2013-07-01 22:30:00,92.9,46.0,29.78,SW,225,14.0,22.0,20,0.00,,---,0.00,0.00,VWS V14.01,2013-07-02 05:30:00,
2013-07-01 22:33:00,92.5,46.0,29.77,SSW,212,14.0,22.0,20,0.00,,,0.00,0,weatherlink.com 1.10,2013-07-02 05:33:00,
2013-07-01 22:45:00,92.2,45.4,29.77,SW,225,13.0,22.0,20,0.00,,---,0.00,0.00,VWS V14.01,2013-07-02 05:45:00,
2013-07-01 22:48:00,91.8,45.0,29.77,SSW,207,9.0,19.0,20,0.00,,,0.00,0,weatherlink.com 1.10,2013-07-02 05:48:00,
2013-07-01 23:00:00,91.6,44.9,29.77,SW,225,13.0,27.0,20,0.00,,---,0.00,0.00,VWS V14.01,2013-07-02 06:00:00,
2013-07-01 23:03:00,91.2,45.0,29.77,SW,218,9.0,22.0,20,0.00,,,0.00,0,weatherlink.com 1.10,2013-07-02 06:03:00,
2013-07-01 23:15:00,91.2,45.8,29.77,SW,225,12.0,21.0,21,0.00,,---,0.00,0.00,VWS V14.01,2013-07-02 06:15:00,
2013-07-01 23:19:00,90.7,46.0,29.78,SSW,207,7.0,21.0,21,0.00,,,0.00,0,weatherlink.com 1.10,2013-07-02 06:19:00,
2013-07-01 23:30:00,90.7,45.4,29.78,SW,225,13.0,22.0,21,0.00,,---,0.00,0.00,VWS V14.01,2013-07-02 06:30:00,
2013-07-01 23:34:00,90.3,45.0,29.78,South,185,9.0,21.0,21,0.00,,,0.00,0,weatherlink.com 1.10,2013-07-02 06:34:00,
2013-07-01 23:45:00,90.1,46.2,29.78,SW,225,11.0,19.0,22,0.00,,---,0.00,0.00,VWS V14.01,2013-07-02 06:45:00,
2013-07-01 23:48:00,89.9,46.0,29.78,SSW,212,11.0,16.0,22,0.00,,,0.00,0,weatherlink.com 1.10,2013-07-02 06:48:00,